Location: Gorze? G�rny
(49.8500°N, 19.5000°E)
Time: 05:13:16
(UTC+00:00)

ATLAS CENTAUR R/B - Pass Details

Date: 13 May 2021
Orbit: 472 x 671 km, 64.6° (Epoch: 13 June)

Event Time Altitude Azimuth Distance (km) Brightness Sun altitude
Exits shadow 23:41:43 20° 276° (W) 1,204 2.9 -20.1°
Maximum altitude 23:43:34 30° 323° (NW) 921 2.8 -20.0°
Drops below altitude 10° 23:47:02 10° 26° (NNE) 1,749 5.1 -19.9°
Sets 23:49:29 0° 37° (NE) 2,675 6.1 -19.7°
